[[{"header":{"parameterUnit":"m.s-1","parameterCategory":1,"la1":30.2991,"la2":30.254,"lo1":-89.0895,"lo2":-89.0444,"dy":0.0017,"dx":0.0017,"nx":28,"ny":28,"refTime":"2025-09-18T21:00:00:Z","depth":0,"parameterNumber":2,"parameterNumberName":"U-component_of_WINDS"},"data":[0,0,0,0,0,0,0,0,0,0,0,0,0,0,0,0,0,0,0,0,0,0,0,0,0,0,0,0,0,0,0,0,0,0,0,0,0,0,0,0,0,0,0,0,0,0,0,0,0,0,0,0,0,0,0,0,0,0,1.4182,1.4183,0,1.4251,1.4252,1.4253,1.4296,1.4296,1.4297,1.4297,1.4364,1.4365,1.4367,0,0,0,0,0,0,0,0,0,0,0,0,0,1.4083,1.4084,1.4182,1.4183,1.4184,1.4251,1.4252,1.4253,1.4296,1.4296,1.4297,1.4297,1.4363,1.4365,1.4367,0,0,0,0,0,0,0,0,0,0,0,0,0,1.4136,1.4085,1.4182,1.4213,1.4217,1.4251,1.4252,1.4253,1.4296,1.4296,1.4297,1.4297,1.4363,1.4365,1.4367,1.4374,0,0,1.4374,1.4375,0,0,0,0,0,0,0,0,1.4133,1.414,1.4208,1.4211,1.4215,1.4266,1.4242,1.4294,1.4296,1.4266,1.4297,1.4297,1.433,1.4335,1.4348,1.4377,1.438,1.4374,1.4376,1.4377,1.4378,0,0,0,0,0,0,0,1.4129,1.4137,1.4209,1.4209,1.4213,1.4223,1.4231,1.4252,1.4295,1.4268,1.4272,1.428,1.4333,1.4345,1.4349,1.4381,1.4374,1.4376,1.4378,1.4379,1.4418,1.4418,0,0,0,0,0,0,1.4121,1.4134,1.4207,1.4211,1.4174,1.4224,1.4233,1.4249,1.4295,1.4302,1.4279,1.4281,1.4341,1.4347,1.4352,1.4362,1.4377,1.4379,1.438,1.4419,1.4418,1.4418,0,0,0,0,0,0,1.4119,1.4127,1.4204,1.4174,1.4184,1.4226,1.4243,1.425,1.4263,1.4303,1.4311,1.4284,1.4342,1.4349,1.4368,1.4365,1.438,1.4382,1.4419,1.4419,1.4418,1.4383,0,0,0,0,0,0,1.4116,1.4126,1.413,1.4173,1.4186,1.4221,1.4243,1.4251,1.4267,1.4271,1.431,1.4317,1.4342,1.4364,1.437,1.4368,1.4384,1.4419,1.4419,1.4418,1.4384,1.4381,1.4378,0,0,0,0,0,1.4112,1.4117,1.413,1.4139,1.4192,1.422,1.4227,1.4258,1.4267,1.427,1.4296,1.4316,1.4365,1.4366,1.4373,1.4372,1.442,1.4419,1.4418,1.4386,1.4382,1.4378,0,0,0,0,0,0,1.4072,1.4123,1.4139,1.4158,1.4185,1.4228,1.4233,1.4253,1.4276,1.4278,1.4314,1.4322,1.4338,1.4357,1.4358,1.438,1.4394,1.4395,1.4367,1.4364,1.4361,1.4355,1.4386,0,0,0,0,0,1.4065,1.4086,1.4129,1.4142,1.4155,1.4191,1.4205,1.4226,1.4255,1.4266,1.4293,1.4319,1.434,1.4353,1.4375,1.4388,1.4396,1.439,1.4387,1.4384,1.4384,1.4391,1.4389,1.4415,1.4415,1.4415,0,0,1.4051,1.4082,1.4093,1.4134,1.4158,1.4176,1.4201,1.422,1.4233,1.4268,1.4289,1.4309,1.434,1.4356,1.4365,1.4373,1.4379,1.4383,1.4381,1.4382,1.439,1.4387,1.4385,1.4415,1.4415,1.4415,0,0,1.4036,1.4062,1.4075,1.4098,1.4133,1.4157,1.416,1.4201,1.4216,1.4237,1.4263,1.428,1.4316,1.4336,1.4352,1.4343,1.4361,1.4349,1.4333,1.4339,1.4337,1.4336,1.4331,1.433,1.4349,1.4349,1.4349,0,1.4014,1.4045,1.4079,1.4096,1.4113,1.4147,1.4159,1.4179,1.4219,1.4229,1.4238,1.4283,1.4307,1.4327,1.4325,1.4337,1.434,1.4345,1.4335,1.4334,1.4333,1.4329,1.4327,1.4347,1.4347,1.4348,1.4348,0,1.4016,1.4037,1.4043,1.4081,1.4099,1.4113,1.4148,1.4161,1.4181,1.4204,1.4224,1.4253,1.4281,1.4288,1.4306,1.4311,1.4314,1.4329,1.4343,1.4328,1.4325,1.4324,1.4345,1.4345,1.4346,1.4346,0,0,1.3977,1.4034,1.4035,1.4053,1.4094,1.4109,1.4125,1.4153,1.4163,1.419,1.4202,1.4232,1.4245,1.4263,1.4284,1.429,1.428,1.4303,1.4304,1.4297,1.4284,1.4272,1.427,1.4292,1.4292,1.4292,1.4281,0,1.3967,1.3998,1.4028,1.4048,1.4066,1.4098,1.4111,1.4137,1.4159,1.4177,1.42,1.422,1.4237,1.4247,1.4255,1.4279,1.4277,1.4281,1.4303,1.4303,1.4293,1.4269,1.4257,1.4245,1.4281,1.428,1.428,0,1.3959,1.3984,1.4006,1.4044,1.4053,1.4065,1.4092,1.411,1.4139,1.4154,1.4173,1.4196,1.4212,1.4226,1.4248,1.4249,1.426,1.4274,1.4274,1.4276,1.429,1.427,1.4243,1.424,1.4279,1.4279,1.4279,0,1.3927,1.3966,1.3984,1.3998,1.4044,1.4051,1.407,1.4099,1.4114,1.4138,1.4147,1.4172,1.4186,1.4204,1.4232,1.424,1.4251,1.4267,1.4263,1.4262,1.4263,1.4262,1.4236,1.4272,1.4272,1.4272,1.4272,0,1.3912,1.3923,1.397,1.3981,1.3994,1.4029,1.404,1.4062,1.4088,1.4102,1.4131,1.4144,1.4181,1.4198,1.422,1.4234,1.424,1.4252,1.4257,1.4249,1.4247,1.4255,1.4256,1.4271,1.4271,1.4272,1.4272,0,1.3877,1.391,1.3931,1.3972,1.3983,1.3991,1.4025,1.4036,1.406,1.4077,1.4083,1.412,1.4141,1.4171,1.4201,1.4216,1.4226,1.4236,1.4216,1.422,1.4213,1.4213,1.419,1.4189,1.4226,1.4226,1.4226,0,1.3865,1.3875,1.3917,1.393,1.3948,1.3967,1.3982,1.4016,1.4031,1.4064,1.407,1.4094,1.4114,1.4146,1.4174,1.4197,1.4207,1.4197,1.421,1.4201,1.4205,1.4203,1.4204,1.4194,1.4193,1.4193,1.4192,0,1.3839,1.3855,1.3876,1.3903,1.3921,1.3943,1.3967,1.3975,1.4013,1.4028,1.405,1.4066,1.4097,1.4119,1.4145,1.4164,1.4183,1.4188,1.4188,1.4179,1.4166,1.4172,1.4207,1.4188,1.4189,1.4189,1.4189,1.4189,1.3815,1.3825,1.3856,1.3879,1.39,1.3921,1.3933,1.3958,1.3978,1.4006,1.4025,1.4046,1.4073,1.4111,1.4128,1.4144,1.4153,1.4153,1.4153,1.4152,1.4148,1.4165,1.4149,1.4149,1.415,1.415,1.415,0,1.379,1.3811,1.3832,1.3864,1.3882,1.3901,1.3927,1.394,1.3959,1.3983,1.4003,1.4028,1.4049,1.4079,1.4103,1.411,1.4119,1.4114,1.4113,1.4117,1.414,1.4137,1.4106,1.4106,1.4106,1.4106,1.4106,1.4106,1.3779,1.3796,1.3814,1.3841,1.3863,1.3884,1.3898,1.3917,1.3937,1.3963,1.3982,1.4002,1.4028,1.4054,1.4074,1.4082,1.4088,1.408,1.4091,1.4112,1.4116,1.4119,1.4117,1.4082,1.4082,1.4067,1.4067,1.4066]},{"header":{"parameterUnit":"m.s-1","parameterCategory":1,"la1":30.2991,"la2":30.254,"lo1":-89.0895,"lo2":-89.0444,"dy":0.0017,"dx":0.0017,"nx":28,"ny":28,"refTime":"2025-09-18T21:00:00:Z","depth":0,"parameterNumber":3,"parameterNumberName":"V-component_of_WINDS"},"data":[0,0,0,0,0,0,0,0,0,0,0,0,0,0,0,0,0,0,0,0,0,0,0,0,0,0,0,0,0,0,0,0,0,0,0,0,0,0,0,0,0,0,0,0,0,0,0,0,0,0,0,0,0,0,0,0,0,0,1.1732,1.1732,0,1.1741,1.1742,1.1742,1.1709,1.1708,1.1707,1.1706,1.1717,1.1718,1.1719,0,0,0,0,0,0,0,0,0,0,0,0,0,1.1684,1.1685,1.1732,1.1732,1.1732,1.1741,1.1742,1.1742,1.1709,1.1708,1.1707,1.1706,1.1716,1.1718,1.1719,0,0,0,0,0,0,0,0,0,0,0,0,0,1.17,1.1685,1.1732,1.1717,1.1716,1.1741,1.1742,1.1742,1.1709,1.1708,1.1707,1.1705,1.1716,1.1718,1.1719,1.176,0,0,1.1725,1.1726,0,0,0,0,0,0,0,0,1.1699,1.1702,1.1719,1.1718,1.1716,1.1722,1.1728,1.1748,1.171,1.1712,1.1706,1.1704,1.172,1.1721,1.1726,1.1761,1.1761,1.1725,1.1726,1.1727,1.1728,0,0,0,0,0,0,0,1.1698,1.1701,1.1735,1.1719,1.1718,1.1709,1.171,1.1732,1.1724,1.1712,1.1709,1.1711,1.1719,1.1725,1.1726,1.1761,1.1725,1.1727,1.1728,1.1729,1.1827,1.1828,0,0,0,0,0,0,1.1699,1.1701,1.1735,1.1736,1.1704,1.1711,1.1712,1.1722,1.1724,1.1723,1.1712,1.1709,1.1722,1.1724,1.1727,1.1773,1.1727,1.1729,1.173,1.1825,1.1827,1.1829,0,0,0,0,0,0,1.1698,1.1702,1.1735,1.1717,1.1721,1.1714,1.1725,1.1723,1.1729,1.1724,1.1722,1.1719,1.1721,1.1724,1.1751,1.1773,1.173,1.1731,1.1823,1.1826,1.1828,1.1866,0,0,0,0,0,0,1.1697,1.1702,1.1718,1.1718,1.1722,1.176,1.1727,1.1724,1.1732,1.1728,1.1731,1.173,1.172,1.1749,1.1753,1.1774,1.1733,1.1821,1.1824,1.1827,1.1863,1.1869,1.1875,0,0,0,0,0,1.1695,1.1729,1.1719,1.1723,1.1742,1.1761,1.1763,1.1752,1.1734,1.1749,1.1746,1.1729,1.177,1.1752,1.1757,1.1779,1.182,1.1824,1.1827,1.186,1.1868,1.1875,0,0,0,0,0,0,1.1733,1.1729,1.1718,1.1753,1.1757,1.1756,1.1775,1.1761,1.1771,1.1768,1.1753,1.1754,1.1783,1.1784,1.1764,1.1817,1.1792,1.1796,1.1815,1.1823,1.1829,1.1828,1.1734,0,0,0,0,0,1.1745,1.1761,1.1757,1.1788,1.1791,1.1783,1.1791,1.1781,1.1786,1.1788,1.1786,1.1791,1.1804,1.1814,1.1826,1.1863,1.1862,1.188,1.1886,1.1891,1.1895,1.1912,1.1919,1.184,1.184,1.184,0,0,1.1771,1.1771,1.1782,1.1796,1.1798,1.1815,1.1785,1.1804,1.1816,1.1791,1.1816,1.1815,1.1819,1.1851,1.1865,1.1852,1.1916,1.1895,1.1899,1.19,1.1916,1.1924,1.193,1.1842,1.1842,1.1841,0,0,1.1826,1.1828,1.1853,1.1856,1.1859,1.1853,1.1859,1.1859,1.1857,1.1882,1.1863,1.1876,1.1901,1.1903,1.1908,1.1962,1.1946,1.1966,1.1998,1.2014,1.2021,1.2026,1.2044,1.205,1.197,1.197,1.197,0,1.1858,1.1882,1.1868,1.1888,1.1894,1.1871,1.1895,1.1899,1.1906,1.1911,1.1896,1.1924,1.1926,1.1956,1.1969,1.1974,1.198,1.1966,1.2021,1.2026,1.2031,1.2048,1.2054,1.1973,1.1972,1.1972,1.1972,0,1.1919,1.1936,1.1956,1.1963,1.1971,1.1993,1.1982,1.1992,1.1981,1.1976,1.2001,1.2001,1.2012,1.2019,1.2009,1.2048,1.2039,1.2023,1.1998,1.2041,1.2056,1.2063,1.1976,1.1975,1.1974,1.1974,0,0,1.2,1.1997,1.2004,1.2006,1.2007,1.202,1.204,1.205,1.2058,1.2064,1.2079,1.2099,1.2083,1.2089,1.2079,1.2094,1.2134,1.2075,1.2075,1.2085,1.2174,1.2185,1.2193,1.2124,1.2125,1.2126,1.2173,0,1.2052,1.2087,1.2074,1.2109,1.2123,1.2101,1.2118,1.212,1.2116,1.2127,1.2122,1.2135,1.2114,1.2117,1.2131,1.2126,1.2151,1.2123,1.2137,1.2138,1.2136,1.2201,1.2214,1.2259,1.2179,1.218,1.2181,0,1.2119,1.2126,1.2162,1.2158,1.2164,1.218,1.2187,1.2198,1.2199,1.2195,1.2199,1.2186,1.2204,1.2179,1.2204,1.2185,1.219,1.2188,1.219,1.219,1.2162,1.2202,1.2273,1.2279,1.219,1.219,1.2189,0,1.2172,1.219,1.2213,1.2216,1.2213,1.2224,1.2223,1.2223,1.2229,1.2235,1.2238,1.2247,1.2251,1.2258,1.2246,1.2229,1.2272,1.2246,1.2268,1.2268,1.2278,1.2277,1.2349,1.2283,1.2283,1.2283,1.2282,0,1.2232,1.2254,1.2237,1.2251,1.2275,1.226,1.2284,1.2281,1.228,1.2293,1.2274,1.2287,1.2271,1.2282,1.2273,1.2293,1.2296,1.2292,1.2289,1.2293,1.2294,1.2296,1.2292,1.2284,1.2284,1.2284,1.2283,0,1.2295,1.2284,1.2308,1.2302,1.2301,1.2319,1.2314,1.2326,1.232,1.2336,1.2339,1.2328,1.2339,1.2328,1.2339,1.2333,1.236,1.2354,1.236,1.2358,1.2379,1.2377,1.2454,1.2463,1.2393,1.2393,1.2394,0,1.2333,1.235,1.2345,1.2352,1.2352,1.2363,1.2369,1.2354,1.236,1.2361,1.2374,1.2383,1.2389,1.2408,1.2401,1.2409,1.2401,1.2428,1.2403,1.2405,1.24,1.2399,1.24,1.2433,1.2434,1.2435,1.2435,0,1.2402,1.2395,1.2404,1.2409,1.2416,1.242,1.2423,1.243,1.2414,1.2422,1.2432,1.2437,1.2447,1.2456,1.2461,1.246,1.2445,1.2443,1.2448,1.2452,1.2454,1.2452,1.2373,1.2442,1.2441,1.244,1.244,1.244,1.2453,1.2466,1.2464,1.2473,1.2473,1.2475,1.2486,1.248,1.2488,1.2495,1.2485,1.2498,1.2497,1.2502,1.2502,1.2512,1.25,1.2508,1.251,1.2512,1.2514,1.2453,1.2513,1.2513,1.2512,1.2512,1.2512,0,1.252,1.2516,1.2525,1.2528,1.2535,1.2519,1.2521,1.2528,1.2539,1.2539,1.2545,1.2556,1.2564,1.2558,1.2564,1.2572,1.2565,1.2575,1.2573,1.2573,1.2525,1.2519,1.258,1.258,1.258,1.258,1.258,1.258,1.2555,1.2575,1.2567,1.2587,1.2583,1.2595,1.2597,1.2598,1.2598,1.2611,1.2617,1.2612,1.2609,1.2615,1.2621,1.2619,1.2621,1.2633,1.2628,1.2583,1.2576,1.257,1.2564,1.2634,1.2634,1.2675,1.2675,1.2675]}]]